Total_Precipitation_Accumulation
0.03 0.03 0.03 0.03 0.03 0.03 0.04 0.05 0.07 0.06 0.03 0.01 0.01 0.00 0.00 0.01 0.01 0.01 0.04 0.05 0.04 0.04 0.04 0.03 0.03 0.03 0.03 0.04 0.05 0.05 0.06 0.08 0.10 0.13 0.18 0.25 0.33 0.41
0.04 0.04 0.05 0.04 0.05 0.05 0.06 0.06 0.07 0.09 0.07 0.02 0.02 0.01 0.02 0.02 0.01 0.04 0.07 0.06 0.05 0.04 0.04 0.05 0.05 0.05 0.06 0.06 0.07 0.09 0.09 0.10 0.10 0.12 0.15 0.19 0.25 0.32
0.05 0.06 0.07 0.08 0.09 0.09 0.08 0.08 0.08 0.10 0.12 0.05 0.02 0.03 0.06 0.09 0.09 0.13 0.13 0.14 0.12 0.09 0.08 0.08 0.08 0.08 0.08 0.10 0.11 0.12 0.13 0.13 0.14 0.14 0.15 0.16 0.18 0.22
0.06 0.07 0.07 0.07 0.09 0.08 0.07 0.07 0.07 0.11 0.14 0.12 0.09 0.08 0.10 0.14 0.16 0.16 0.09 0.07 0.12 0.09 0.09 0.09 0.11 0.12 0.13 0.13 0.13 0.12 0.10 0.08 0.09 0.10 0.13 0.15 0.17 0.19
0.04 0.05 0.05 0.06 0.07 0.07 0.07 0.06 0.08 0.09 0.16 0.19 0.16 0.15 0.13 0.12 0.15 0.13 0.13 0.19 0.12 0.09 0.08 0.08 0.10 0.09 0.09 0.08 0.07 0.07 0.06 0.04 0.04 0.05 0.07 0.11 0.14 0.16
0.03 0.04 0.04 0.05 0.06 0.07 0.07 0.09 0.12 0.17 0.19 0.22 0.19 0.14 0.12 0.11 0.18 0.19 0.17 0.18 0.16 0.10 0.10 0.08 0.08 0.06 0.04 0.04 0.04 0.05 0.05 0.06 0.06 0.06 0.06 0.06 0.07 0.08
0.03 0.03 0.03 0.04 0.06 0.06 0.07 0.11 0.17 0.22 0.23 0.23 0.19 0.14 0.12 0.15 0.20 0.23 0.21 0.16 0.12 0.10 0.12 0.10 0.11 0.11 0.11 0.10 0.07 0.05 0.04 0.04 0.04 0.05 0.05 0.05 0.04 0.04
0.03 0.04 0.04 0.03 0.03 0.04 0.06 0.11 0.18 0.22 0.23 0.24 0.21 0.20 0.17 0.22 0.29 0.29 0.28 0.28 0.21 0.15 0.19 0.12 0.11 0.13 0.14 0.15 0.12 0.08 0.06 0.04 0.03 0.03 0.03 0.04 0.04 0.03
0.07 0.07 0.05 0.03 0.05 0.08 0.08 0.08 0.09 0.11 0.17 0.25 0.28 0.26 0.28 0.30 0.40 0.39 0.38 0.38 0.31 0.25 0.30 0.22 0.17 0.16 0.14 0.13 0.13 0.11 0.08 0.08 0.06 0.03 0.02 0.03 0.04 0.04
0.07 0.07 0.08 0.08 0.08 0.07 0.06 0.06 0.09 0.13 0.15 0.19 0.28 0.28 0.26 0.29 0.38 0.42 0.41 0.38 0.31 0.30 0.39 0.36 0.21 0.18 0.13 0.22 0.23 0.17 0.12 0.14 0.12 0.06 0.03 0.02 0.02 0.04
0.04 0.05 0.06 0.09 0.08 0.08 0.07 0.08 0.11 0.15 0.14 0.18 0.24 0.29 0.34 0.39 0.42 0.44 0.47 0.50 0.41 0.34 0.43 0.45 0.34 0.26 0.18 0.26 0.30 0.23 0.21 0.27 0.25 0.13 0.06 0.04 0.04 0.04
0.05 0.08 0.09 0.08 0.07 0.07 0.06 0.12 0.18 0.17 0.20 0.25 0.40 0.58 0.64 0.62 0.53 0.49 0.51 0.55 0.54 0.54 0.51 0.53 0.46 0.37 0.31 0.27 0.31 0.34 0.39 0.48 0.44 0.28 0.14 0.09 0.09 0.12
0.08 0.12 0.14 0.08 0.06 0.06 0.08 0.14 0.20 0.19 0.23 0.38 0.58 0.69 0.68 0.58 0.49 0.45 0.47 0.52 0.57 0.64 0.57 0.56 0.51 0.47 0.51 0.41 0.29 0.36 0.48 0.62 0.64 0.50 0.31 0.21 0.16 0.16
0.10 0.13 0.14 0.10 0.09 0.11 0.14 0.18 0.20 0.26 0.38 0.54 0.65 0.64 0.53 0.42 0.38 0.37 0.39 0.43 0.49 0.51 0.49 0.51 0.54 0.50 0.52 0.45 0.36 0.40 0.56 0.72 0.77 0.66 0.50 0.40 0.29 0.24
0.09 0.12 0.14 0.16 0.18 0.26 0.27 0.23 0.28 0.41 0.50 0.57 0.60 0.56 0.46 0.38 0.33 0.32 0.32 0.37 0.41 0.39 0.35 0.37 0.43 0.45 0.50 0.50 0.53 0.61 0.71 0.89 0.92 0.80 0.67 0.54 0.40 0.32
0.09 0.17 0.26 0.31 0.34 0.38 0.42 0.45 0.47 0.48 0.46 0.52 0.53 0.46 0.38 0.33 0.31 0.28 0.31 0.34 0.37 0.39 0.37 0.34 0.38 0.45 0.53 0.55 0.63 0.73 0.78 0.98 1.03 0.90 0.80 0.71 0.59 0.46
0.09 0.22 0.38 0.44 0.45 0.44 0.42 0.43 0.46 0.45 0.45 0.44 0.43 0.41 0.38 0.34 0.31 0.27 0.28 0.31 0.35 0.38 0.38 0.35 0.37 0.41 0.41 0.43 0.55 0.63 0.71 0.87 1.00 0.93 0.80 0.86 0.88 0.70
0.16 0.32 0.42 0.44 0.45 0.41 0.38 0.36 0.36 0.36 0.35 0.36 0.37 0.36 0.35 0.33 0.32 0.29 0.27 0.29 0.33 0.33 0.33 0.31 0.31 0.30 0.27 0.32 0.54 0.65 0.66 0.84 0.94 0.83 0.70 0.81 0.97 0.84
0.22 0.32 0.37 0.42 0.43 0.38 0.35 0.34 0.33 0.30 0.29 0.30 0.31 0.31 0.30 0.30 0.28 0.28 0.26 0.28 0.31 0.31 0.28 0.24 0.23 0.22 0.21 0.32 0.57 0.77 0.74 0.76 0.77 0.71 0.64 0.65 0.85 0.88
0.24 0.28 0.30 0.34 0.36 0.35 0.32 0.28 0.26 0.25 0.23 0.23 0.25 0.26 0.27 0.27 0.25 0.24 0.24 0.23 0.27 0.28 0.25 0.22 0.21 0.24 0.25 0.31 0.56 0.77 0.80 0.63 0.54 0.59 0.62 0.63 0.74 0.75
0.22 0.25 0.24 0.24 0.26 0.27 0.28 0.28 0.25 0.23 0.21 0.21 0.20 0.22 0.23 0.24 0.24 0.21 0.18 0.15 0.19 0.22 0.23 0.24 0.24 0.20 0.19 0.18 0.36 0.58 0.68 0.75 0.63 0.53 0.51 0.53 0.51 0.42
0.18 0.20 0.21 0.21 0.21 0.20 0.19 0.19 0.19 0.17 0.16 0.16 0.19 0.20 0.20 0.19 0.19 0.17 0.16 0.17 0.17 0.18 0.19 0.20 0.19 0.16 0.17 0.20 0.35 0.51 0.55 0.51 0.50 0.52 0.50 0.35 0.23 0.25
0.18 0.18 0.17 0.18 0.17 0.15 0.12 0.12 0.12 0.12 0.13 0.14 0.16 0.18 0.16 0.14 0.13 0.11 0.09 0.08 0.08 0.09 0.12 0.14 0.14 0.13 0.13 0.16 0.23 0.30 0.30 0.26 0.18 0.19 0.34 0.40 0.30 0.30